Year,Month,Day,Hour,Minute,Value (Times are PST for windspeed in km/hr)
2007,01,11,00,00,14.00
2007,01,11,00,01,16.40
2007,01,11,00,02,11.60
2007,01,11,00,03,16.90
2007,01,11,00,04,24.00
2007,01,11,00,05,15.00
2007,01,11,00,06,17.30
2007,01,11,00,07,17.10
2007,01,11,00,08,13.50
2007,01,11,00,09,16.00
2007,01,11,00,10,19.50
2007,01,11,00,11,10.10
2007,01,11,00,12,8.40
2007,01,11,00,13,8.20
2007,01,11,00,14,19.20
2007,01,11,00,15,8.00
2007,01,11,00,16,6.40
2007,01,11,00,17,12.50
2007,01,11,00,18,14.20
2007,01,11,00,19,17.30
2007,01,11,00,20,18.80
2007,01,11,00,21,12.50
2007,01,11,00,22,11.00
2007,01,11,00,23,15.00
2007,01,11,00,24,16.70
2007,01,11,00,25,15.00
2007,01,11,00,26,9.40
2007,01,11,00,27,19.00
2007,01,11,00,28,17.70
2007,01,11,00,29,13.30
2007,01,11,00,30,14.60
2007,01,11,00,31,17.30
2007,01,11,00,32,14.80
2007,01,11,00,33,16.20
2007,01,11,00,34,10.00
2007,01,11,00,35,10.60
2007,01,11,00,36,19.40
2007,01,11,00,37,20.50
2007,01,11,00,38,21.10
2007,01,11,00,39,22.20
2007,01,11,00,40,20.30
2007,01,11,00,41,11.10
2007,01,11,00,42,16.30
2007,01,11,00,43,15.00
2007,01,11,00,44,10.20
2007,01,11,00,45,10.70
2007,01,11,00,46,12.50
2007,01,11,00,47,20.90
2007,01,11,00,48,13.20
2007,01,11,00,49,11.30
2007,01,11,00,50,13.10
2007,01,11,00,51,14.80
2007,01,11,00,52,16.20
2007,01,11,00,53,19.40
2007,01,11,00,54,15.20
2007,01,11,00,55,8.40
2007,01,11,00,56,6.70
2007,01,11,00,57,13.80
2007,01,11,00,58,13.60
2007,01,11,00,59,9.40
2007,01,11,01,00,16.40
2007,01,11,01,01,12.70
2007,01,11,01,02,11.90
2007,01,11,01,03,12.20
2007,01,11,01,04,10.10
2007,01,11,01,05,14.80
2007,01,11,01,06,18.00
2007,01,11,01,07,17.20
2007,01,11,01,08,7.10
2007,01,11,01,09,13.70
2007,01,11,01,10,14.50
2007,01,11,01,11,13.60
2007,01,11,01,12,21.60
2007,01,11,01,13,23.70
2007,01,11,01,14,18.30
2007,01,11,01,15,18.20
2007,01,11,01,16,13.30
2007,01,11,01,17,14.60
2007,01,11,01,18,7.50
2007,01,11,01,19,17.60
2007,01,11,01,20,14.60
2007,01,11,01,21,16.70
2007,01,11,01,22,12.40
2007,01,11,01,23,11.80
2007,01,11,01,24,15.30
2007,01,11,01,25,18.30
2007,01,11,01,26,12.50
2007,01,11,01,27,18.50
2007,01,11,01,28,21.70
2007,01,11,01,29,7.40
2007,01,11,01,30,8.60
2007,01,11,01,31,9.30
2007,01,11,01,32,7.30
2007,01,11,01,33,16.40
2007,01,11,01,34,12.50
2007,01,11,01,35,11.30
2007,01,11,01,36,14.40
2007,01,11,01,37,9.70
2007,01,11,01,38,12.10
2007,01,11,01,39,20.20
2007,01,11,01,40,7.70
2007,01,11,01,41,6.10
2007,01,11,01,42,13.00
2007,01,11,01,43,12.10
2007,01,11,01,44,9.50
2007,01,11,01,45,9.20
2007,01,11,01,46,11.50
2007,01,11,01,47,15.20
2007,01,11,01,48,15.90
2007,01,11,01,49,18.60
2007,01,11,01,50,7.90
2007,01,11,01,51,16.20
2007,01,11,01,52,16.40
2007,01,11,01,53,11.00
2007,01,11,01,54,9.40
2007,01,11,01,55,15.50
2007,01,11,01,56,10.90
2007,01,11,01,57,10.00
2007,01,11,01,58,12.30
2007,01,11,01,59,17.10
2007,01,11,02,00,13.00
2007,01,11,02,01,16.90
2007,01,11,02,02,13.80
2007,01,11,02,03,9.90
2007,01,11,02,04,14.10
2007,01,11,02,05,10.40
2007,01,11,02,06,17.20
2007,01,11,02,07,15.80
2007,01,11,02,08,12.70
2007,01,11,02,09,20.00
2007,01,11,02,10,12.00
2007,01,11,02,11,8.90
2007,01,11,02,12,15.00
2007,01,11,02,13,14.60
2007,01,11,02,14,13.40
2007,01,11,02,15,20.40
2007,01,11,02,16,14.20
2007,01,11,02,17,12.90
2007,01,11,02,18,11.70
2007,01,11,02,19,12.50
2007,01,11,02,20,14.30
2007,01,11,02,21,12.70
2007,01,11,02,22,12.60
2007,01,11,02,23,14.00
2007,01,11,02,24,10.00
2007,01,11,02,25,10.80
2007,01,11,02,26,14.40
2007,01,11,02,27,15.40
2007,01,11,02,28,21.30
2007,01,11,02,29,15.40
2007,01,11,02,30,19.80
2007,01,11,02,31,22.30
2007,01,11,02,32,11.60
2007,01,11,02,33,11.40
2007,01,11,02,34,10.40
2007,01,11,02,35,7.20
2007,01,11,02,36,2.10
2007,01,11,02,37,12.80
2007,01,11,02,38,19.00
2007,01,11,02,39,11.20
2007,01,11,02,40,9.50
2007,01,11,02,41,10.60
2007,01,11,02,42,21.60
2007,01,11,02,43,23.80
2007,01,11,02,44,11.60
2007,01,11,02,45,10.40
2007,01,11,02,46,18.10
2007,01,11,02,47,20.30
2007,01,11,02,48,9.00
2007,01,11,02,49,16.10
2007,01,11,02,50,11.80
2007,01,11,02,51,17.20
2007,01,11,02,52,13.80
2007,01,11,02,53,13.10
2007,01,11,02,54,12.70
2007,01,11,02,55,15.10
2007,01,11,02,56,16.70
2007,01,11,02,57,7.60
2007,01,11,02,58,7.70
2007,01,11,02,59,14.00
2007,01,11,03,00,14.70
2007,01,11,03,01,16.90
2007,01,11,03,02,15.20
2007,01,11,03,03,19.70
2007,01,11,03,04,12.30
2007,01,11,03,05,11.70
2007,01,11,03,06,14.60
2007,01,11,03,07,18.00
2007,01,11,03,08,17.90
2007,01,11,03,09,17.90
2007,01,11,03,10,9.70
2007,01,11,03,11,3.20
2007,01,11,03,12,12.40
2007,01,11,03,13,10.40
2007,01,11,03,14,17.90
2007,01,11,03,15,14.50
2007,01,11,03,16,18.90
2007,01,11,03,17,15.60
2007,01,11,03,18,16.60
2007,01,11,03,19,26.30
2007,01,11,03,20,10.90
2007,01,11,03,21,12.20
2007,01,11,03,22,14.00
2007,01,11,03,23,13.90
2007,01,11,03,24,13.80
2007,01,11,03,25,14.50
2007,01,11,03,26,22.30
2007,01,11,03,27,20.70
2007,01,11,03,28,18.30
2007,01,11,03,29,18.40
2007,01,11,03,30,23.00
2007,01,11,03,31,40.30
2007,01,11,03,32,10.80
2007,01,11,03,33,14.20
2007,01,11,03,34,7.80
2007,01,11,03,35,15.00
2007,01,11,03,36,16.30
2007,01,11,03,37,18.50
2007,01,11,03,38,12.90
2007,01,11,03,39,22.20
2007,01,11,03,40,22.20
2007,01,11,03,41,18.10
2007,01,11,03,42,21.90
2007,01,11,03,43,12.90
2007,01,11,03,44,15.80
2007,01,11,03,45,9.20
2007,01,11,03,46,20.40
2007,01,11,03,47,21.60
2007,01,11,03,48,19.50
2007,01,11,03,49,22.10
2007,01,11,03,50,15.10
2007,01,11,03,51,19.90
2007,01,11,03,52,16.40
2007,01,11,03,53,15.30
2007,01,11,03,54,17.10
2007,01,11,03,55,17.70
2007,01,11,03,56,14.30
2007,01,11,03,57,10.70
2007,01,11,03,58,18.10
2007,01,11,03,59,22.00
2007,01,11,04,00,13.90
2007,01,11,04,01,6.60
2007,01,11,04,02,21.50
2007,01,11,04,03,17.10
2007,01,11,04,04,13.80
2007,01,11,04,05,15.60
2007,01,11,04,06,17.30
2007,01,11,04,07,15.60
2007,01,11,04,08,13.00
2007,01,11,04,09,15.20
2007,01,11,04,10,17.90
2007,01,11,04,11,11.90
2007,01,11,04,12,11.90
2007,01,11,04,13,7.90
2007,01,11,04,14,8.60
2007,01,11,04,15,12.30
2007,01,11,04,16,10.80
2007,01,11,04,17,16.20
2007,01,11,04,18,16.40
2007,01,11,04,19,9.70
2007,01,11,04,20,13.30
2007,01,11,04,21,4.60
2007,01,11,04,22,10.30
2007,01,11,04,23,8.40
2007,01,11,04,24,7.70
2007,01,11,04,25,19.20
2007,01,11,04,26,11.30
2007,01,11,04,27,11.80
2007,01,11,04,28,17.50
2007,01,11,04,29,12.60
2007,01,11,04,30,15.80
2007,01,11,04,31,9.40
2007,01,11,04,32,9.80
2007,01,11,04,33,10.90
2007,01,11,04,34,19.20
2007,01,11,04,35,13.90
2007,01,11,04,36,20.50
2007,01,11,04,37,20.50
2007,01,11,04,38,13.80
2007,01,11,04,39,13.10
2007,01,11,04,40,14.30
2007,01,11,04,41,10.50
2007,01,11,04,42,17.60
2007,01,11,04,43,13.40
2007,01,11,04,44,8.10
2007,01,11,04,45,9.60
2007,01,11,04,46,22.70
2007,01,11,04,47,17.60
2007,01,11,04,48,13.50
2007,01,11,04,49,15.40
2007,01,11,04,50,15.00
2007,01,11,04,51,14.20
2007,01,11,04,52,18.30
2007,01,11,04,53,13.80
2007,01,11,04,54,12.40
2007,01,11,04,55,16.20
2007,01,11,04,56,15.40
2007,01,11,04,57,26.80
2007,01,11,04,58,17.90
2007,01,11,04,59,15.30
2007,01,11,05,00,15.90
2007,01,11,05,01,17.20
2007,01,11,05,02,15.10
2007,01,11,05,03,22.00
2007,01,11,05,04,16.50
2007,01,11,05,05,21.20
2007,01,11,05,06,19.60
2007,01,11,05,07,15.30
2007,01,11,05,08,12.70
2007,01,11,05,09,14.40
2007,01,11,05,10,13.00
2007,01,11,05,11,18.70
2007,01,11,05,12,15.50
2007,01,11,05,13,5.80
2007,01,11,05,14,15.00
2007,01,11,05,15,14.30
2007,01,11,05,16,18.40
2007,01,11,05,17,20.40
2007,01,11,05,18,15.00
2007,01,11,05,19,12.70
2007,01,11,05,20,14.60
2007,01,11,05,21,23.10
2007,01,11,05,22,16.50
2007,01,11,05,23,19.70
2007,01,11,05,24,16.40
2007,01,11,05,25,14.70
2007,01,11,05,26,15.00
2007,01,11,05,27,21.10
2007,01,11,05,28,18.90
2007,01,11,05,29,7.80
2007,01,11,05,30,16.60
2007,01,11,05,31,19.90
2007,01,11,05,32,11.80
2007,01,11,05,33,13.50
2007,01,11,05,34,20.50
2007,01,11,05,35,18.80
2007,01,11,05,36,18.20
2007,01,11,05,37,10.10
2007,01,11,05,38,16.70
2007,01,11,05,39,19.60
2007,01,11,05,40,16.90
2007,01,11,05,41,15.70
2007,01,11,05,42,15.80
2007,01,11,05,43,15.50
2007,01,11,05,44,19.10
2007,01,11,05,45,20.80
2007,01,11,05,46,23.40
2007,01,11,05,47,13.40
2007,01,11,05,48,17.00
2007,01,11,05,49,17.20
2007,01,11,05,50,13.90
2007,01,11,05,51,14.40
2007,01,11,05,52,20.10
2007,01,11,05,53,10.80
2007,01,11,05,54,13.10
2007,01,11,05,55,10.60
2007,01,11,05,56,17.80
2007,01,11,05,57,17.70
2007,01,11,05,58,14.30
2007,01,11,05,59,12.00
2007,01,11,06,00,17.40
2007,01,11,06,01,13.00
2007,01,11,06,02,17.40
2007,01,11,06,03,12.20
2007,01,11,06,04,18.40
2007,01,11,06,05,19.10
2007,01,11,06,06,20.10
2007,01,11,06,07,14.40
2007,01,11,06,08,13.80
2007,01,11,06,09,7.30
2007,01,11,06,10,12.90
2007,01,11,06,11,14.40
2007,01,11,06,12,11.10
2007,01,11,06,13,10.30
2007,01,11,06,14,16.20
2007,01,11,06,15,12.70
2007,01,11,06,16,9.50
2007,01,11,06,17,14.10
2007,01,11,06,18,15.30
2007,01,11,06,19,14.80
2007,01,11,06,20,17.00
2007,01,11,06,21,15.70
2007,01,11,06,22,13.30
2007,01,11,06,23,15.70
2007,01,11,06,24,13.40
2007,01,11,06,25,22.60
2007,01,11,06,26,15.70
2007,01,11,06,27,18.20
2007,01,11,06,28,13.40
2007,01,11,06,29,20.40
2007,01,11,06,30,20.00
2007,01,11,06,31,10.10
2007,01,11,06,32,13.90
2007,01,11,06,33,13.90
2007,01,11,06,34,18.00
2007,01,11,06,35,20.30
2007,01,11,06,36,14.60
2007,01,11,06,37,20.10
2007,01,11,06,38,10.00
2007,01,11,06,39,10.00
2007,01,11,06,40,8.20
2007,01,11,06,41,11.30
2007,01,11,06,42,19.70
2007,01,11,06,43,23.90
2007,01,11,06,44,17.90
2007,01,11,06,45,15.40
2007,01,11,06,46,11.40
2007,01,11,06,47,14.80
2007,01,11,06,48,13.20
2007,01,11,06,49,23.00
2007,01,11,06,50,17.30
2007,01,11,06,51,13.90
2007,01,11,06,52,16.90
2007,01,11,06,53,19.80
2007,01,11,06,54,18.70
2007,01,11,06,55,16.20
2007,01,11,06,56,18.10
2007,01,11,06,57,22.60
2007,01,11,06,58,20.40
2007,01,11,06,59,16.70
2007,01,11,07,00,12.60
2007,01,11,07,01,17.90
2007,01,11,07,02,19.00
2007,01,11,07,03,17.40
2007,01,11,07,04,18.20
2007,01,11,07,05,16.40
2007,01,11,07,06,19.40
2007,01,11,07,07,24.40
2007,01,11,07,08,25.80
2007,01,11,07,09,18.40
2007,01,11,07,10,16.90
2007,01,11,07,11,22.50
2007,01,11,07,12,19.00
2007,01,11,07,13,14.30
2007,01,11,07,14,11.90
2007,01,11,07,15,11.60
2007,01,11,07,16,16.20
2007,01,11,07,17,16.70
2007,01,11,07,18,13.10
2007,01,11,07,19,10.70
2007,01,11,07,20,15.40
2007,01,11,07,21,22.30
2007,01,11,07,22,14.90
2007,01,11,07,23,11.00
2007,01,11,07,24,5.90
2007,01,11,07,25,13.60
2007,01,11,07,26,20.50
2007,01,11,07,27,13.00
2007,01,11,07,28,12.80
2007,01,11,07,29,12.70
2007,01,11,07,30,18.20
2007,01,11,07,31,14.70
2007,01,11,07,32,15.70
2007,01,11,07,33,9.60
2007,01,11,07,34,17.50
2007,01,11,07,35,15.90
2007,01,11,07,36,16.20
2007,01,11,07,37,20.40
2007,01,11,07,38,9.50
2007,01,11,07,39,19.80
2007,01,11,07,40,9.70
2007,01,11,07,41,16.70
2007,01,11,07,42,14.30
2007,01,11,07,43,7.90
2007,01,11,07,44,12.00
2007,01,11,07,45,12.00
2007,01,11,07,46,13.60
2007,01,11,07,47,9.90
2007,01,11,07,48,12.50
2007,01,11,07,49,12.90
2007,01,11,07,50,9.30
2007,01,11,07,51,9.20
2007,01,11,07,52,19.60
2007,01,11,07,53,17.00
2007,01,11,07,54,18.30
2007,01,11,07,55,16.40
2007,01,11,07,56,9.40
2007,01,11,07,57,17.10
2007,01,11,07,58,17.00
2007,01,11,07,59,14.10
2007,01,11,08,00,14.90
2007,01,11,08,01,14.70
2007,01,11,08,02,12.60
2007,01,11,08,03,18.00
2007,01,11,08,04,20.90
2007,01,11,08,05,15.90
2007,01,11,08,06,12.90
2007,01,11,08,07,15.10
2007,01,11,08,08,21.10
2007,01,11,08,09,12.10
2007,01,11,08,10,13.90
2007,01,11,08,11,16.60
2007,01,11,08,12,15.40
2007,01,11,08,13,11.80
2007,01,11,08,14,9.10
2007,01,11,08,15,10.30
2007,01,11,08,16,15.90
2007,01,11,08,17,22.60
2007,01,11,08,18,12.00
2007,01,11,08,19,16.70
2007,01,11,08,20,12.80
2007,01,11,08,21,21.20
2007,01,11,08,22,10.50
2007,01,11,08,23,8.30
2007,01,11,08,24,12.60
2007,01,11,08,25,6.30
2007,01,11,08,26,7.50
2007,01,11,08,27,10.90
2007,01,11,08,28,15.00
2007,01,11,08,29,17.20
2007,01,11,08,30,14.30
2007,01,11,08,31,6.40
2007,01,11,08,32,17.20
2007,01,11,08,33,16.10
2007,01,11,08,34,12.50
2007,01,11,08,35,12.00
2007,01,11,08,36,13.00
2007,01,11,08,37,13.20
2007,01,11,08,38,15.60
2007,01,11,08,39,10.20
2007,01,11,08,40,7.50
2007,01,11,08,41,14.50
2007,01,11,08,42,15.60
2007,01,11,08,43,16.80
2007,01,11,08,44,17.80
2007,01,11,08,45,12.70
2007,01,11,08,46,20.40
2007,01,11,08,47,14.50
2007,01,11,08,48,7.60
2007,01,11,08,49,10.50
2007,01,11,08,50,12.40
2007,01,11,08,51,10.10
2007,01,11,08,52,9.60
2007,01,11,08,53,10.50
2007,01,11,08,54,9.90
2007,01,11,08,55,11.70
2007,01,11,08,56,11.80
2007,01,11,08,57,7.40
2007,01,11,08,58,11.50
2007,01,11,08,59,12.80
2007,01,11,09,00,7.80
2007,01,11,09,01,16.70
2007,01,11,09,02,11.00
2007,01,11,09,03,10.10
2007,01,11,09,04,6.10
2007,01,11,09,05,14.10
2007,01,11,09,06,14.90
2007,01,11,09,07,4.50
2007,01,11,09,08,14.20
2007,01,11,09,09,13.40
2007,01,11,09,10,9.20
2007,01,11,09,11,10.10
2007,01,11,09,12,13.40
2007,01,11,09,13,19.70
2007,01,11,09,14,12.30
2007,01,11,09,15,13.40
2007,01,11,09,16,9.10
2007,01,11,09,17,8.50
2007,01,11,09,18,8.60
2007,01,11,09,19,6.20
2007,01,11,09,20,7.10
2007,01,11,09,21,9.90
2007,01,11,09,22,15.60
2007,01,11,09,23,10.50
2007,01,11,09,24,13.80
2007,01,11,09,25,10.90
2007,01,11,09,26,8.10
2007,01,11,09,27,7.60
2007,01,11,09,28,14.10
2007,01,11,09,29,4.20
2007,01,11,09,30,13.50
2007,01,11,09,31,10.30
2007,01,11,09,32,8.40
2007,01,11,09,33,3.70
2007,01,11,09,34,12.50
2007,01,11,09,35,6.20
2007,01,11,09,36,6.80
2007,01,11,09,37,9.70
2007,01,11,09,38,9.40
2007,01,11,09,39,13.40
2007,01,11,09,40,12.70
2007,01,11,09,41,5.90
2007,01,11,09,42,12.70
2007,01,11,09,43,13.10
2007,01,11,09,44,11.70
2007,01,11,09,45,10.40
2007,01,11,09,46,8.00
2007,01,11,09,47,10.80
2007,01,11,09,48,15.80
2007,01,11,09,49,11.60
2007,01,11,09,50,14.90
2007,01,11,09,51,10.40
2007,01,11,09,52,5.80
2007,01,11,09,53,3.20
2007,01,11,09,54,2.10
2007,01,11,09,55,3.50
2007,01,11,09,56,4.80
2007,01,11,09,57,15.10
2007,01,11,09,58,11.10
2007,01,11,09,59,11.20
2007,01,11,10,00,11.10
2007,01,11,10,01,16.20
2007,01,11,10,02,11.80
2007,01,11,10,03,6.40
2007,01,11,10,04,11.90
2007,01,11,10,05,8.00
2007,01,11,10,06,9.70
2007,01,11,10,07,16.40
2007,01,11,10,08,9.90
2007,01,11,10,09,8.50
2007,01,11,10,10,9.90
2007,01,11,10,11,3.00
2007,01,11,10,12,7.90
2007,01,11,10,13,10.50
2007,01,11,10,14,1.50
2007,01,11,10,15,4.80
2007,01,11,10,16,9.00
2007,01,11,10,17,5.50
2007,01,11,10,18,5.90
2007,01,11,10,19,4.10
2007,01,11,10,20,2.20
2007,01,11,10,21,4.00
2007,01,11,10,22,12.30
2007,01,11,10,23,8.20
2007,01,11,10,24,7.70
2007,01,11,10,25,10.00
2007,01,11,10,26,5.80
2007,01,11,10,27,10.00
2007,01,11,10,28,9.70
2007,01,11,10,29,10.80
2007,01,11,10,30,6.00
2007,01,11,10,31,5.80
2007,01,11,10,32,10.90
2007,01,11,10,33,8.00
2007,01,11,10,34,0.00
2007,01,11,10,35,5.40
2007,01,11,10,36,9.90
2007,01,11,10,37,3.90
2007,01,11,10,38,4.90
2007,01,11,10,39,13.60
2007,01,11,10,40,15.70
2007,01,11,10,41,9.10
2007,01,11,10,42,5.60
2007,01,11,10,43,8.70
2007,01,11,10,44,17.70
2007,01,11,10,45,11.00
2007,01,11,10,46,10.40
2007,01,11,10,47,6.90
2007,01,11,10,48,12.30
2007,01,11,10,49,11.90
2007,01,11,10,50,8.50
2007,01,11,10,51,9.30
2007,01,11,10,52,4.30
2007,01,11,10,53,9.20
2007,01,11,10,54,11.50
2007,01,11,10,55,13.00
2007,01,11,10,56,13.00
2007,01,11,10,57,14.10
2007,01,11,10,58,10.50
2007,01,11,10,59,14.70
2007,01,11,11,00,14.30
2007,01,11,11,01,15.30
2007,01,11,11,02,8.80
2007,01,11,11,03,11.20
2007,01,11,11,04,13.90
2007,01,11,11,05,15.30
2007,01,11,11,06,12.60
2007,01,11,11,07,9.80
2007,01,11,11,08,10.50
2007,01,11,11,09,15.50
2007,01,11,11,10,15.30
2007,01,11,11,11,8.80
2007,01,11,11,12,15.50
2007,01,11,11,13,9.50
2007,01,11,11,14,9.20
2007,01,11,11,15,12.30
2007,01,11,11,16,9.60
2007,01,11,11,17,9.40
2007,01,11,11,18,8.00
2007,01,11,11,19,8.70
2007,01,11,11,20,11.70
2007,01,11,11,21,13.10
2007,01,11,11,22,13.80
2007,01,11,11,23,10.50
2007,01,11,11,24,12.50
2007,01,11,11,25,5.00
2007,01,11,11,26,12.10
2007,01,11,11,27,6.40
2007,01,11,11,28,12.00
2007,01,11,11,29,11.60
2007,01,11,11,30,15.30
2007,01,11,11,31,16.20
2007,01,11,11,32,15.40
2007,01,11,11,33,14.90
2007,01,11,11,34,9.70
2007,01,11,11,35,9.40
2007,01,11,11,36,13.80
2007,01,11,11,37,14.90
2007,01,11,11,38,13.00
2007,01,11,11,39,10.00
2007,01,11,11,40,12.20
2007,01,11,11,41,27.40
2007,01,11,11,42,18.00
2007,01,11,11,43,11.30
2007,01,11,11,44,7.80
2007,01,11,11,45,19.00
2007,01,11,11,46,15.00
2007,01,11,11,47,10.30
2007,01,11,11,48,13.40
2007,01,11,11,49,10.90
2007,01,11,11,50,8.60
2007,01,11,11,51,15.20
2007,01,11,11,52,4.80
2007,01,11,11,53,9.00
2007,01,11,11,54,9.10
2007,01,11,11,55,13.60
2007,01,11,11,56,9.20
2007,01,11,11,57,8.90
2007,01,11,11,58,11.30
2007,01,11,11,59,8.30
2007,01,11,12,00,6.20
2007,01,11,12,01,8.50
2007,01,11,12,02,6.10
2007,01,11,12,03,14.80
2007,01,11,12,04,9.90
2007,01,11,12,05,12.70
2007,01,11,12,06,8.50
2007,01,11,12,07,11.20
2007,01,11,12,08,5.90
2007,01,11,12,09,4.50
2007,01,11,12,10,6.60
2007,01,11,12,11,5.80
2007,01,11,12,12,6.50
2007,01,11,12,13,7.20
2007,01,11,12,14,6.50
2007,01,11,12,15,5.60
2007,01,11,12,16,15.50
2007,01,11,12,17,4.60
2007,01,11,12,18,12.10
2007,01,11,12,19,6.30
2007,01,11,12,20,7.60
2007,01,11,12,21,6.20
2007,01,11,12,22,7.80
2007,01,11,12,23,6.90
2007,01,11,12,24,4.80
2007,01,11,12,25,10.90
2007,01,11,12,26,9.50
2007,01,11,12,27,6.00
2007,01,11,12,28,13.40
2007,01,11,12,29,6.30
2007,01,11,12,30,11.30
2007,01,11,12,31,7.80
2007,01,11,12,32,9.00
2007,01,11,12,33,11.30
2007,01,11,12,34,9.40
2007,01,11,12,35,6.70
2007,01,11,12,36,4.50
2007,01,11,12,37,7.50
2007,01,11,12,38,7.70
2007,01,11,12,39,11.40
2007,01,11,12,40,15.20
2007,01,11,12,41,9.70
2007,01,11,12,42,9.10
2007,01,11,12,43,7.70
2007,01,11,12,44,10.30
2007,01,11,12,45,9.10
2007,01,11,12,46,15.10
2007,01,11,12,47,13.60
2007,01,11,12,48,12.10
2007,01,11,12,49,11.10
2007,01,11,12,50,9.50
2007,01,11,12,51,10.00
2007,01,11,12,52,9.10
2007,01,11,12,53,4.90
2007,01,11,12,54,3.90
2007,01,11,12,55,9.40
2007,01,11,12,56,15.80
2007,01,11,12,57,4.60
2007,01,11,12,58,4.70
2007,01,11,12,59,7.20
2007,01,11,13,00,13.40
2007,01,11,13,01,9.20
2007,01,11,13,02,14.10
2007,01,11,13,03,12.20
2007,01,11,13,04,10.60
2007,01,11,13,05,11.40
2007,01,11,13,06,11.60
2007,01,11,13,07,6.70
2007,01,11,13,08,8.70
2007,01,11,13,09,8.30
2007,01,11,13,10,8.30
2007,01,11,13,11,7.10
2007,01,11,13,12,8.10
2007,01,11,13,13,7.00
2007,01,11,13,14,11.40
2007,01,11,13,15,13.90
2007,01,11,13,16,14.00
2007,01,11,13,17,9.40
2007,01,11,13,18,8.00
2007,01,11,13,19,11.30
2007,01,11,13,20,14.00
2007,01,11,13,21,15.40
2007,01,11,13,22,8.70
2007,01,11,13,23,8.00
2007,01,11,13,24,8.00
2007,01,11,13,25,14.70
2007,01,11,13,26,13.00
2007,01,11,13,27,12.90
2007,01,11,13,28,8.50
2007,01,11,13,29,15.50
2007,01,11,13,30,12.20
2007,01,11,13,31,13.00
2007,01,11,13,32,11.30
2007,01,11,13,33,8.60
2007,01,11,13,34,12.60
2007,01,11,13,35,13.20
2007,01,11,13,36,7.90
2007,01,11,13,37,7.60
2007,01,11,13,38,4.80
2007,01,11,13,39,4.30
2007,01,11,13,40,8.50
2007,01,11,13,41,16.40
2007,01,11,13,42,10.80
2007,01,11,13,43,10.70
2007,01,11,13,44,4.30
2007,01,11,13,45,10.70
2007,01,11,13,46,7.10
2007,01,11,13,47,2.40
2007,01,11,13,48,3.70
2007,01,11,13,49,12.00
2007,01,11,13,50,7.00
2007,01,11,13,51,7.80
2007,01,11,13,52,5.20
2007,01,11,13,53,5.60
2007,01,11,13,54,9.30
2007,01,11,13,55,10.40
2007,01,11,13,56,7.00
2007,01,11,13,57,5.00
2007,01,11,13,58,4.50
2007,01,11,13,59,4.00
2007,01,11,14,00,14.00
2007,01,11,14,01,10.80
2007,01,11,14,02,8.00
2007,01,11,14,03,4.50
2007,01,11,14,04,5.70
2007,01,11,14,05,8.80
2007,01,11,14,06,13.30
2007,01,11,14,07,11.80
2007,01,11,14,08,13.70
2007,01,11,14,09,12.20
2007,01,11,14,10,13.20
2007,01,11,14,11,8.90
2007,01,11,14,12,7.50
2007,01,11,14,13,4.80
2007,01,11,14,14,7.00
2007,01,11,14,15,12.30
2007,01,11,14,16,10.10
2007,01,11,14,17,6.20
2007,01,11,14,18,5.20
2007,01,11,14,19,8.80
2007,01,11,14,20,8.00
2007,01,11,14,21,6.60
2007,01,11,14,22,6.90
2007,01,11,14,23,4.80
2007,01,11,14,24,8.30
2007,01,11,14,25,3.40
2007,01,11,14,26,2.90
2007,01,11,14,27,1.50
2007,01,11,14,28,5.50
2007,01,11,14,29,5.60
2007,01,11,14,30,10.10
2007,01,11,14,31,5.60
2007,01,11,14,32,8.80
2007,01,11,14,33,5.10
2007,01,11,14,34,7.70
2007,01,11,14,35,6.50
2007,01,11,14,36,11.70
2007,01,11,14,37,9.10
2007,01,11,14,38,8.90
2007,01,11,14,39,12.60
2007,01,11,14,40,5.60
2007,01,11,14,41,2.60
2007,01,11,14,42,8.10
2007,01,11,14,43,5.30
2007,01,11,14,44,10.40
2007,01,11,14,45,11.90
2007,01,11,14,46,11.10
2007,01,11,14,47,2.90
2007,01,11,14,48,9.00
2007,01,11,14,49,11.40
2007,01,11,14,50,9.30
2007,01,11,14,51,4.90
2007,01,11,14,52,7.20
2007,01,11,14,53,4.20
2007,01,11,14,54,9.40
2007,01,11,14,55,7.30
2007,01,11,14,56,6.10
2007,01,11,14,57,9.70
2007,01,11,14,58,3.50
2007,01,11,14,59,6.20
2007,01,11,15,00,6.20
2007,01,11,15,01,10.50
2007,01,11,15,02,7.20
2007,01,11,15,03,2.70
2007,01,11,15,04,8.40
2007,01,11,15,05,5.20
2007,01,11,15,06,5.80
2007,01,11,15,07,6.80
2007,01,11,15,08,4.90
2007,01,11,15,09,4.80
2007,01,11,15,10,4.90
2007,01,11,15,11,4.30
2007,01,11,15,12,3.60
2007,01,11,15,13,6.40
2007,01,11,15,14,10.60
2007,01,11,15,15,13.30
2007,01,11,15,16,9.80
2007,01,11,15,17,9.20
2007,01,11,15,18,7.50
2007,01,11,15,19,6.90
2007,01,11,15,20,6.30
2007,01,11,15,21,8.30
2007,01,11,15,22,8.10
2007,01,11,15,23,3.50
2007,01,11,15,24,6.30
2007,01,11,15,25,6.40
2007,01,11,15,26,3.70
2007,01,11,15,27,1.10
2007,01,11,15,28,6.10
2007,01,11,15,29,10.20
2007,01,11,15,30,4.50
2007,01,11,15,31,3.50
2007,01,11,15,32,3.80
2007,01,11,15,33,3.10
2007,01,11,15,34,1.80
2007,01,11,15,35,5.10
2007,01,11,15,36,4.80
2007,01,11,15,37,6.10
2007,01,11,15,38,6.90
2007,01,11,15,39,4.80
2007,01,11,15,40,2.20
2007,01,11,15,41,3.90
2007,01,11,15,42,1.10
2007,01,11,15,43,5.80
2007,01,11,15,44,5.20
2007,01,11,15,45,3.80
2007,01,11,15,46,3.10
2007,01,11,15,47,2.60
2007,01,11,15,48,0.30
2007,01,11,15,49,0.40
2007,01,11,15,50,5.70
2007,01,11,15,51,4.00
2007,01,11,15,52,3.60
2007,01,11,15,53,0.40
2007,01,11,15,54,2.60
2007,01,11,15,55,5.60
2007,01,11,15,56,3.40
2007,01,11,15,57,0.70
2007,01,11,15,58,0.90
2007,01,11,15,59,2.40
2007,01,11,16,00,5.20
2007,01,11,16,01,2.90
2007,01,11,16,02,1.80
2007,01,11,16,03,2.40
2007,01,11,16,04,4.70
2007,01,11,16,05,2.90
2007,01,11,16,06,3.40
2007,01,11,16,07,0.40
2007,01,11,16,08,0.50
2007,01,11,16,09,0.10
2007,01,11,16,10,0.00
2007,01,11,16,11,1.20
2007,01,11,16,12,3.80
2007,01,11,16,13,0.40
2007,01,11,16,14,3.10
2007,01,11,16,15,7.80
2007,01,11,16,16,5.00
2007,01,11,16,17,0.90
2007,01,11,16,18,0.00
2007,01,11,16,19,0.50
2007,01,11,16,20,1.30
2007,01,11,16,21,0.10
2007,01,11,16,22,0.60
2007,01,11,16,23,1.20
2007,01,11,16,24,1.20
2007,01,11,16,25,1.30
2007,01,11,16,26,0.20
2007,01,11,16,27,0.20
2007,01,11,16,28,0.40
2007,01,11,16,29,0.10
2007,01,11,16,30,1.00
2007,01,11,16,31,0.00
2007,01,11,16,32,0.10
2007,01,11,16,33,0.30
2007,01,11,16,34,0.10
2007,01,11,16,35,1.60
2007,01,11,16,36,1.50
2007,01,11,16,37,1.10
2007,01,11,16,38,0.00
2007,01,11,16,39,4.40
2007,01,11,16,40,0.80
2007,01,11,16,41,2.60
2007,01,11,16,42,0.20
2007,01,11,16,43,1.60
2007,01,11,16,44,0.40
2007,01,11,16,45,5.00
2007,01,11,16,46,2.10
2007,01,11,16,47,2.60
2007,01,11,16,48,0.20
2007,01,11,16,49,0.10
2007,01,11,16,50,0.00
2007,01,11,16,51,0.00
2007,01,11,16,52,0.00
2007,01,11,16,53,0.70
2007,01,11,16,54,2.90
2007,01,11,16,55,1.60
2007,01,11,16,56,1.70
2007,01,11,16,57,5.20
2007,01,11,16,58,7.20
2007,01,11,16,59,2.00
2007,01,11,17,00,1.70
2007,01,11,17,01,0.80
2007,01,11,17,02,1.50
2007,01,11,17,03,0.00
2007,01,11,17,04,0.40
2007,01,11,17,05,0.60
2007,01,11,17,06,0.00
2007,01,11,17,07,0.40
2007,01,11,17,08,3.70
2007,01,11,17,09,3.80
2007,01,11,17,10,3.00
2007,01,11,17,11,2.40
2007,01,11,17,12,1.60
2007,01,11,17,13,1.00
2007,01,11,17,14,3.40
2007,01,11,17,15,4.10
2007,01,11,17,16,6.00
2007,01,11,17,17,3.40
2007,01,11,17,18,5.50
2007,01,11,17,19,3.00
2007,01,11,17,20,6.80
2007,01,11,17,21,4.10
2007,01,11,17,22,5.00
2007,01,11,17,23,3.40
2007,01,11,17,24,3.40
2007,01,11,17,25,3.40
2007,01,11,17,26,5.10
2007,01,11,17,27,4.80
2007,01,11,17,28,3.70
2007,01,11,17,29,3.40
2007,01,11,17,30,2.70
2007,01,11,17,31,3.40
2007,01,11,17,32,4.80
2007,01,11,17,33,4.00
2007,01,11,17,34,3.30
2007,01,11,17,35,4.50
2007,01,11,17,36,4.80
2007,01,11,17,37,2.30